Content
SEND FEEDBACK

United States of America Flag

WEST YELLOWSTONE, MONTANA


Home > North America > United States > Montana
Elevation: 6644 feet     Latitude: 44 41N     Longitude: 111 06W

WEATHER
 
SELECT A DAY
Number of Records: 52,992;   Date Range: 9/1/12 - 11/13/15
 
SHARE

PRINT THIS DATA

[ ← Previous Day ]
WEATHER ALMANAC - NOVEMBER 8, 2013
[ Next Day → ]
[ °C ]   °F
Weather ElementAverageHighLow
Temperature31.1 °F35.6 °F (12:50 am)26.6 °F (6:10 am)
Dewpoint26.9 °F32 °F (12:50 am)23 °F (6:10 am)
Humidity84.6 %87 % (12:30 am)80 % (1:50 am)
Barometer29.98 in30.09 in (11:30 pm)29.79 in (12:30 am)
Wind Speed10.5 mph20.7 mph (12:10 pm)
Wind Gust28.8 mph (1:10 am)
Weather ElementAverage
Visibility9.7 mi
Wind DirectionSSW (204.9 °)

Weather ElementTotal
Precipitation0.03 in
Heating Degree Days33.9 (Base 65)
Averaged from 71 records on November 8, 2013
WEATHER CONDITIONS BREAKOUT
WIND DIRECTION BREAKOUT
WEATHER BY HOUR - NOVEMBER 8, 2013
[ °C ]   °F
Local TimeTemperatureDewpointHumidityBarometerVisibilityWind DirectionWind SpeedGust SpeedPrecipitationEventsConditions
12:30 AM33.8 °F30.2 °F87 %29.79 in10.0 miWest (270°)9.2 mphMostly Cloudy
12:50 AM35.6 °F32.0 °F87 %29.80 in7.0 miWSW (240°)19.6 mph27.6 mphOvercast
1:10 AM33.8 °F30.2 °F87 %29.80 in0.8 miWest (260°)8.1 mph28.8 mph0.01 inSnowLight Snow
1:30 AM32.0 °F28.4 °F87 %29.84 in3.0 miNW (310°)8.1 mph28.8 mph0.01 inOvercast
1:50 AM32.0 °F26.6 °F80 %29.85 in10.0 miNW (320°)10.4 mph23.0 mph0.01 inRainLight Rain
2:10 AM32.0 °F26.6 °F80 %29.86 in10.0 miCalmOvercast
2:30 AM30.2 °F26.6 °F86 %29.87 in10.0 miCalmMostly Cloudy
2:50 AM28.4 °F24.8 °F86 %29.88 in10.0 miCalmPartly Cloudy
3:10 AM30.2 °F26.6 °F86 %29.89 in10.0 miCalmMostly Cloudy
3:30 AM30.2 °F26.6 °F86 %29.90 in10.0 miWSW (240°)9.2 mphScattered Clouds
3:50 AM30.2 °F26.6 °F86 %29.90 in10.0 miWSW (240°)10.4 mph17.3 mphPartly Cloudy
4:10 AM30.2 °F26.6 °F86 %29.90 in10.0 miSW (230°)8.1 mphClear
4:30 AM30.2 °F26.6 °F86 %29.90 in10.0 miWSW (250°)11.5 mph20.7 mphClear
4:45 AM30.2 °F26.6 °F86 %29.88 in10.0 miWSW (250°)15.0 mph21.9 mphClear
5:10 AM30.2 °F26.6 °F86 %29.90 in10.0 miSW (220°)8.1 mph23.0 mphClear
5:30 AM28.4 °F24.8 °F86 %29.91 in10.0 miSouth (180°)6.9 mphClear
5:50 AM28.4 °F24.8 °F86 %29.92 in10.0 miSW (230°)5.8 mphClear
6:10 AM26.6 °F23.0 °F86 %29.92 in10.0 miSSW (210°)5.8 mphClear
6:30 AM26.6 °F23.0 °F86 %29.92 in10.0 miNNE (20°)4.6 mphClear
6:50 AM26.6 °F23.0 °F86 %29.95 in10.0 miSE (130°)6.9 mphClear
7:10 AM26.6 °F23.0 °F86 %29.96 in10.0 miSouth (180°)6.9 mphMostly Cloudy
7:30 AM26.6 °F23.0 °F86 %29.96 in10.0 miSouth (180°)11.5 mphMostly Cloudy
7:50 AM26.6 °F23.0 °F86 %29.96 in10.0 miSSW (210°)11.5 mphMostly Cloudy
8:10 AM26.6 °F23.0 °F86 %29.98 in10.0 miSSW (210°)10.4 mphPartly Cloudy
8:30 AM28.4 °F24.8 °F86 %29.98 in10.0 miSW (220°)12.7 mphPartly Cloudy
8:50 AM28.4 °F24.8 °F86 %29.99 in10.0 miWSW (250°)8.1 mphScattered Clouds
9:10 AM30.2 °F26.6 °F86 %29.99 in10.0 miSW (230°)9.2 mphMostly Cloudy
9:30 AM32.0 °F26.6 °F80 %29.99 in10.0 miWSW (240°)4.6 mphMostly Cloudy
9:50 AM32.0 °F28.4 °F87 %29.99 in10.0 miSSW (210°)15.0 mphMostly Cloudy
10:10 AM32.0 °F28.4 °F87 %30.01 in10.0 miSW (220°)15.0 mph23.0 mphMostly Cloudy
10:30 AM32.0 °F28.4 °F87 %30.01 in10.0 miSW (220°)16.1 mph21.9 mphOvercast
10:50 AM32.0 °F28.4 °F87 %30.02 in10.0 miSSW (210°)17.3 mph24.2 mphMostly Cloudy
11:10 AM32.0 °F28.4 °F87 %30.02 in10.0 miSW (220°)13.8 mph20.7 mphMostly Cloudy
11:30 AM32.0 °F28.4 °F87 %30.02 in10.0 miSW (220°)17.3 mph23.0 mphOvercast
11:50 AM32.0 °F28.4 °F87 %30.02 in10.0 miSSW (210°)18.4 mph24.2 mphOvercast
12:10 PM32.0 °F28.4 °F87 %30.02 in10.0 miSW (220°)20.7 mph25.3 mphOvercast
12:30 PM32.0 °F28.4 °F87 %30.01 in10.0 miSSW (210°)15.0 mph21.9 mphOvercast
12:50 PM32.0 °F28.4 °F87 %30.00 in10.0 miSW (220°)17.3 mph23.0 mphMostly Cloudy
1:10 PM32.0 °F28.4 °F87 %30.00 in10.0 miSW (220°)17.3 mph23.0 mphPartly Cloudy
1:30 PM32.0 °F28.4 °F87 %30.00 in10.0 miSW (220°)11.5 mph19.6 mphMostly Cloudy
1:50 PM32.0 °F28.4 °F87 %30.00 in10.0 miSW (230°)13.8 mph18.4 mphMostly Cloudy
2:10 PM32.0 °F28.4 °F87 %30.01 in10.0 miSW (220°)16.1 mph24.2 mphOvercast
2:30 PM32.0 °F28.4 °F87 %30.01 in10.0 miSW (230°)17.3 mph23.0 mphMostly Cloudy
2:50 PM32.0 °F28.4 °F87 %30.01 in10.0 miSSW (210°)15.0 mph21.9 mphScattered Clouds
3:10 PM32.0 °F28.4 °F87 %30.01 in10.0 miSSW (210°)12.7 mph21.9 mphScattered Clouds
3:30 PM32.0 °F28.4 °F87 %30.01 in10.0 miSW (220°)9.2 mphOvercast
3:50 PM32.0 °F28.4 °F87 %30.01 in10.0 miSW (230°)5.8 mphOvercast
4:10 PM32.0 °F28.4 °F87 %30.02 in10.0 miSSW (210°)5.8 mphOvercast
4:30 PM32.0 °F28.4 °F87 %30.01 in10.0 miSSW (210°)10.4 mph16.1 mphOvercast
4:50 PM32.0 °F28.4 °F87 %30.02 in10.0 miSSW (200°)10.4 mphOvercast
5:10 PM32.0 °F28.4 °F87 %30.02 in10.0 miSSW (210°)9.2 mphOvercast
5:30 PM32.0 °F28.4 °F87 %30.02 in10.0 miSSW (210°)11.5 mphOvercast
5:50 PM32.0 °F26.6 °F80 %30.03 in10.0 miSW (220°)9.2 mphOvercast
6:10 PM32.0 °F26.6 °F80 %30.03 in10.0 miSW (220°)11.5 mphOvercast
6:25 PM32.0 °F26.6 °F80 %30.03 in10.0 miSW (220°)9.2 mphOvercast
6:50 PM32.0 °F26.6 °F80 %30.04 in10.0 miSSW (210°)10.4 mphOvercast
7:10 PM32.0 °F26.6 °F80 %30.04 in10.0 miSSW (210°)12.7 mphOvercast
7:30 PM32.0 °F26.6 °F80 %30.05 in10.0 miSW (220°)11.5 mphOvercast
7:50 PM32.0 °F26.6 °F80 %30.04 in10.0 miSW (220°)13.8 mph19.6 mphOvercast
8:10 PM32.0 °F26.6 °F80 %30.05 in10.0 miSSW (210°)11.5 mphOvercast
8:30 PM32.0 °F26.6 °F80 %30.05 in10.0 miSSW (210°)12.7 mph17.3 mphOvercast
8:50 PM32.0 °F26.6 °F80 %30.05 in10.0 miSSW (210°)9.2 mph16.1 mphOvercast
9:10 PM32.0 °F26.6 °F80 %30.07 in10.0 miSSW (210°)9.2 mphOvercast
9:30 PM32.0 °F26.6 °F80 %30.07 in10.0 miSSW (210°)8.1 mphOvercast
9:50 PM32.0 °F26.6 °F80 %30.07 in10.0 miSW (220°)8.1 mphOvercast
10:10 PM32.0 °F26.6 °F80 %30.07 in10.0 miSSW (210°)9.2 mphOvercast
10:30 PM32.0 °F26.6 °F80 %30.08 in10.0 miSW (220°)6.9 mphOvercast
10:50 PM32.0 °F26.6 °F80 %30.08 in10.0 miSSW (210°)8.1 mphOvercast
11:10 PM32.0 °F26.6 °F80 %30.08 in10.0 miSSW (210°)9.2 mphOvercast
11:30 PM32.0 °F26.6 °F80 %30.09 in10.0 miSSW (200°)10.4 mphOvercast
11:50 PM30.2 °F26.6 °F86 %30.09 in10.0 miSSW (200°)10.4 mphOvercast
Hourly data recorded from KWYS, located miles away from West Yellowstone, Montana




STORIES FROM OUR PARTNERS